Year,Month,Day,Hour,Minute,Value (Times are PST for temperature in C)
2018,08,01,00,00,16.30
2018,08,01,00,01,16.30
2018,08,01,00,02,16.30
2018,08,01,00,03,16.30
2018,08,01,00,04,16.30
2018,08,01,00,05,16.30
2018,08,01,00,06,16.30
2018,08,01,00,07,16.20
2018,08,01,00,08,16.20
2018,08,01,00,09,16.20
2018,08,01,00,10,16.20
2018,08,01,00,11,16.20
2018,08,01,00,12,16.20
2018,08,01,00,13,16.20
2018,08,01,00,14,16.10
2018,08,01,00,15,16.10
2018,08,01,00,16,16.10
2018,08,01,00,17,16.10
2018,08,01,00,18,16.10
2018,08,01,00,19,16.20
2018,08,01,00,20,16.20
2018,08,01,00,21,16.20
2018,08,01,00,22,16.20
2018,08,01,00,23,16.30
2018,08,01,00,24,16.30
2018,08,01,00,25,16.30
2018,08,01,00,26,16.40
2018,08,01,00,27,16.40
2018,08,01,00,28,16.40
2018,08,01,00,29,16.40
2018,08,01,00,30,16.40
2018,08,01,00,31,16.50
2018,08,01,00,32,16.50
2018,08,01,00,33,16.50
2018,08,01,00,34,16.50
2018,08,01,00,35,16.50
2018,08,01,00,36,16.50
2018,08,01,00,37,16.60
2018,08,01,00,38,16.60
2018,08,01,00,39,16.60
2018,08,01,00,40,16.60
2018,08,01,00,41,16.60
2018,08,01,00,42,16.70
2018,08,01,00,43,16.70
2018,08,01,00,44,16.70
2018,08,01,00,45,16.70
2018,08,01,00,46,16.70
2018,08,01,00,47,16.70
2018,08,01,00,48,16.70
2018,08,01,00,49,16.60
2018,08,01,00,50,16.60
2018,08,01,00,51,16.60
2018,08,01,00,52,16.60
2018,08,01,00,53,16.60
2018,08,01,00,54,16.50
2018,08,01,00,55,16.50
2018,08,01,00,56,16.40
2018,08,01,00,57,16.40
2018,08,01,00,58,16.40
2018,08,01,00,59,16.40
2018,08,01,01,00,16.40
2018,08,01,01,01,16.30
2018,08,01,01,02,16.30
2018,08,01,01,03,16.30
2018,08,01,01,04,16.30
2018,08,01,01,05,16.30
2018,08,01,01,06,16.20
2018,08,01,01,07,16.20
2018,08,01,01,08,16.20
2018,08,01,01,09,16.10
2018,08,01,01,10,16.10
2018,08,01,01,11,16.00
2018,08,01,01,12,16.00
2018,08,01,01,13,15.90
2018,08,01,01,14,15.90
2018,08,01,01,15,15.90
2018,08,01,01,16,15.80
2018,08,01,01,17,15.80
2018,08,01,01,18,15.80
2018,08,01,01,19,15.80
2018,08,01,01,20,15.80
2018,08,01,01,21,15.80
2018,08,01,01,22,15.80
2018,08,01,01,23,15.80
2018,08,01,01,24,15.80
2018,08,01,01,25,15.80
2018,08,01,01,26,15.80
2018,08,01,01,27,15.90
2018,08,01,01,28,15.90
2018,08,01,01,29,16.00
2018,08,01,01,30,16.10
2018,08,01,01,31,16.10
2018,08,01,01,32,16.10
2018,08,01,01,33,16.20
2018,08,01,01,34,16.20
2018,08,01,01,35,16.20
2018,08,01,01,36,16.20
2018,08,01,01,37,16.10
2018,08,01,01,38,16.10
2018,08,01,01,39,16.10
2018,08,01,01,40,16.10
2018,08,01,01,41,16.10
2018,08,01,01,42,16.10
2018,08,01,01,43,16.10
2018,08,01,01,44,16.10
2018,08,01,01,45,16.10
2018,08,01,01,46,16.10
2018,08,01,01,47,16.10
2018,08,01,01,48,16.10
2018,08,01,01,49,16.10
2018,08,01,01,50,16.10
2018,08,01,01,51,16.10
2018,08,01,01,52,16.10
2018,08,01,01,53,16.10
2018,08,01,01,54,16.10
2018,08,01,01,55,16.10
2018,08,01,01,56,16.10
2018,08,01,01,57,16.10
2018,08,01,01,58,16.00
2018,08,01,01,59,16.00
2018,08,01,02,00,16.00
2018,08,01,02,01,16.00
2018,08,01,02,02,16.00
2018,08,01,02,03,16.00
2018,08,01,02,04,16.00
2018,08,01,02,05,15.90
2018,08,01,02,06,15.90
2018,08,01,02,07,15.90
2018,08,01,02,08,15.90
2018,08,01,02,09,15.90
2018,08,01,02,10,15.90
2018,08,01,02,11,15.90
2018,08,01,02,12,15.90
2018,08,01,02,13,15.90
2018,08,01,02,14,15.80
2018,08,01,02,15,15.80
2018,08,01,02,16,15.80
2018,08,01,02,17,15.80
2018,08,01,02,18,15.80
2018,08,01,02,19,15.80
2018,08,01,02,20,15.80
2018,08,01,02,21,15.80
2018,08,01,02,22,15.80
2018,08,01,02,23,15.80
2018,08,01,02,24,15.80
2018,08,01,02,25,15.80
2018,08,01,02,26,15.80
2018,08,01,02,27,15.80
2018,08,01,02,28,15.80
2018,08,01,02,29,15.80
2018,08,01,02,30,15.80
2018,08,01,02,31,15.80
2018,08,01,02,32,15.80
2018,08,01,02,33,15.80
2018,08,01,02,34,15.80
2018,08,01,02,35,15.80
2018,08,01,02,36,15.80
2018,08,01,02,37,15.70
2018,08,01,02,38,15.70
2018,08,01,02,39,15.70
2018,08,01,02,40,15.70
2018,08,01,02,41,15.70
2018,08,01,02,42,15.70
2018,08,01,02,43,15.70
2018,08,01,02,44,15.70
2018,08,01,02,45,15.70
2018,08,01,02,46,15.70
2018,08,01,02,47,15.60
2018,08,01,02,48,15.60
2018,08,01,02,49,15.60
2018,08,01,02,50,15.50
2018,08,01,02,51,15.50
2018,08,01,02,52,15.40
2018,08,01,02,53,15.40
2018,08,01,02,54,15.30
2018,08,01,02,55,15.30
2018,08,01,02,56,15.30
2018,08,01,02,57,15.30
2018,08,01,02,58,15.30
2018,08,01,02,59,15.30
2018,08,01,03,00,15.20
2018,08,01,03,01,15.20
2018,08,01,03,02,15.20
2018,08,01,03,03,15.20
2018,08,01,03,04,15.20
2018,08,01,03,05,15.20
2018,08,01,03,06,15.10
2018,08,01,03,07,15.10
2018,08,01,03,08,15.10
2018,08,01,03,09,15.10
2018,08,01,03,10,15.10
2018,08,01,03,11,15.00
2018,08,01,03,12,15.00
2018,08,01,03,13,15.00
2018,08,01,03,14,14.90
2018,08,01,03,15,14.90
2018,08,01,03,16,14.90
2018,08,01,03,17,14.80
2018,08,01,03,18,14.80
2018,08,01,03,19,14.80
2018,08,01,03,20,14.80
2018,08,01,03,21,14.80
2018,08,01,03,22,14.70
2018,08,01,03,23,14.70
2018,08,01,03,24,14.70
2018,08,01,03,25,14.70
2018,08,01,03,26,14.70
2018,08,01,03,27,14.60
2018,08,01,03,28,14.60
2018,08,01,03,29,14.60
2018,08,01,03,30,14.60
2018,08,01,03,31,14.60
2018,08,01,03,32,14.50
2018,08,01,03,33,14.50
2018,08,01,03,34,14.50
2018,08,01,03,35,14.50
2018,08,01,03,36,14.40
2018,08,01,03,37,14.40
2018,08,01,03,38,14.40
2018,08,01,03,39,14.40
2018,08,01,03,40,14.40
2018,08,01,03,41,14.40
2018,08,01,03,42,14.30
2018,08,01,03,43,14.30
2018,08,01,03,44,14.30
2018,08,01,03,45,14.30
2018,08,01,03,46,14.30
2018,08,01,03,47,14.30
2018,08,01,03,48,14.30
2018,08,01,03,49,14.30
2018,08,01,03,50,14.30
2018,08,01,03,51,14.30
2018,08,01,03,52,14.30
2018,08,01,03,53,14.40
2018,08,01,03,54,14.40
2018,08,01,03,55,14.40
2018,08,01,03,56,14.40
2018,08,01,03,57,14.40
2018,08,01,03,58,14.40
2018,08,01,03,59,14.30
2018,08,01,04,00,14.30
2018,08,01,04,01,14.30
2018,08,01,04,02,14.30
2018,08,01,04,03,14.30
2018,08,01,04,04,14.30
2018,08,01,04,05,14.20
2018,08,01,04,06,14.20
2018,08,01,04,07,14.20
2018,08,01,04,08,14.10
2018,08,01,04,09,14.10
2018,08,01,04,10,14.10
2018,08,01,04,11,14.10
2018,08,01,04,12,14.10
2018,08,01,04,13,14.10
2018,08,01,04,14,14.10
2018,08,01,04,15,14.10
2018,08,01,04,16,14.10
2018,08,01,04,17,14.10
2018,08,01,04,18,14.20
2018,08,01,04,19,14.20
2018,08,01,04,20,14.20
2018,08,01,04,21,14.20
2018,08,01,04,22,14.30
2018,08,01,04,23,14.30
2018,08,01,04,24,14.30
2018,08,01,04,25,14.30
2018,08,01,04,26,14.30
2018,08,01,04,27,14.30
2018,08,01,04,28,14.30
2018,08,01,04,29,14.30
2018,08,01,04,30,14.40
2018,08,01,04,31,14.40
2018,08,01,04,32,14.40
2018,08,01,04,33,14.40
2018,08,01,04,34,14.40
2018,08,01,04,35,14.40
2018,08,01,04,36,14.40
2018,08,01,04,37,14.40
2018,08,01,04,38,14.40
2018,08,01,04,39,14.30
2018,08,01,04,40,14.30
2018,08,01,04,41,14.30
2018,08,01,04,42,14.30
2018,08,01,04,43,14.30
2018,08,01,04,44,14.30
2018,08,01,04,45,14.30
2018,08,01,04,46,14.30
2018,08,01,04,47,14.30
2018,08,01,04,48,14.30
2018,08,01,04,49,14.30
2018,08,01,04,50,14.30
2018,08,01,04,51,14.30
2018,08,01,04,52,14.20
2018,08,01,04,53,14.20
2018,08,01,04,54,14.20
2018,08,01,04,55,14.20
2018,08,01,04,56,14.10
2018,08,01,04,57,14.10
2018,08,01,04,58,14.10
2018,08,01,04,59,14.00
2018,08,01,05,00,14.00
2018,08,01,05,01,14.00
2018,08,01,05,02,13.90
2018,08,01,05,03,13.90
2018,08,01,05,04,13.90
2018,08,01,05,05,13.90
2018,08,01,05,06,13.90
2018,08,01,05,07,13.90
2018,08,01,05,08,13.90
2018,08,01,05,09,13.90
2018,08,01,05,10,13.90
2018,08,01,05,11,13.90
2018,08,01,05,12,13.90
2018,08,01,05,13,14.00
2018,08,01,05,14,14.00
2018,08,01,05,15,14.00
2018,08,01,05,16,14.00
2018,08,01,05,17,14.00
2018,08,01,05,18,14.00
2018,08,01,05,19,14.00
2018,08,01,05,20,14.00
2018,08,01,05,21,14.00
2018,08,01,05,22,14.00
2018,08,01,05,23,13.90
2018,08,01,05,24,13.90
2018,08,01,05,25,13.90
2018,08,01,05,26,13.90
2018,08,01,05,27,13.90
2018,08,01,05,28,13.90
2018,08,01,05,29,13.80
2018,08,01,05,30,13.80
2018,08,01,05,31,13.80
2018,08,01,05,32,13.80
2018,08,01,05,33,13.70
2018,08,01,05,34,13.70
2018,08,01,05,35,13.70
2018,08,01,05,36,13.70
2018,08,01,05,37,13.70
2018,08,01,05,38,13.70
2018,08,01,05,39,13.70
2018,08,01,05,40,13.70
2018,08,01,05,41,13.70
2018,08,01,05,42,13.70
2018,08,01,05,43,13.60
2018,08,01,05,44,13.60
2018,08,01,05,45,13.60
2018,08,01,05,46,13.60
2018,08,01,05,47,13.60
2018,08,01,05,48,13.60
2018,08,01,05,49,13.50
2018,08,01,05,50,13.50
2018,08,01,05,51,13.50
2018,08,01,05,52,13.50
2018,08,01,05,53,13.50
2018,08,01,05,54,13.50
2018,08,01,05,55,13.40
2018,08,01,05,56,13.40
2018,08,01,05,57,13.40
2018,08,01,05,58,13.40
2018,08,01,05,59,13.40
2018,08,01,06,00,13.40
2018,08,01,06,01,13.40
2018,08,01,06,02,13.40
2018,08,01,06,03,13.40
2018,08,01,06,04,13.40
2018,08,01,06,05,13.40
2018,08,01,06,06,13.40
2018,08,01,06,07,13.40
2018,08,01,06,08,13.50
2018,08,01,06,09,13.50
2018,08,01,06,10,13.50
2018,08,01,06,11,13.50
2018,08,01,06,12,13.50
2018,08,01,06,13,13.60
2018,08,01,06,14,13.60
2018,08,01,06,15,13.60
2018,08,01,06,16,13.70
2018,08,01,06,17,13.70
2018,08,01,06,18,13.70
2018,08,01,06,19,13.70
2018,08,01,06,20,13.70
2018,08,01,06,21,13.80
2018,08,01,06,22,13.80
2018,08,01,06,23,13.80
2018,08,01,06,24,13.80
2018,08,01,06,25,13.80
2018,08,01,06,26,13.70
2018,08,01,06,27,13.70
2018,08,01,06,28,13.70
2018,08,01,06,29,13.70
2018,08,01,06,30,13.70
2018,08,01,06,31,13.70
2018,08,01,06,32,13.70
2018,08,01,06,33,13.70
2018,08,01,06,34,13.70
2018,08,01,06,35,13.70
2018,08,01,06,36,13.70
2018,08,01,06,37,13.70
2018,08,01,06,38,13.70
2018,08,01,06,39,13.70
2018,08,01,06,40,13.70
2018,08,01,06,41,13.80
2018,08,01,06,42,13.80
2018,08,01,06,43,13.70
2018,08,01,06,44,13.80
2018,08,01,06,45,13.80
2018,08,01,06,46,13.80
2018,08,01,06,47,13.80
2018,08,01,06,48,13.80
2018,08,01,06,49,13.80
2018,08,01,06,50,13.80
2018,08,01,06,51,13.80
2018,08,01,06,52,13.80
2018,08,01,06,53,13.80
2018,08,01,06,54,13.80
2018,08,01,06,55,13.90
2018,08,01,06,56,13.90
2018,08,01,06,57,13.90
2018,08,01,06,58,14.00
2018,08,01,06,59,14.00
2018,08,01,07,00,14.10
2018,08,01,07,01,14.10
2018,08,01,07,02,14.10
2018,08,01,07,03,14.10
2018,08,01,07,04,14.20
2018,08,01,07,05,14.20
2018,08,01,07,06,14.20
2018,08,01,07,07,14.20
2018,08,01,07,08,14.20
2018,08,01,07,09,14.20
2018,08,01,07,10,14.20
2018,08,01,07,11,14.20
2018,08,01,07,12,14.20
2018,08,01,07,13,14.30
2018,08,01,07,14,14.30
2018,08,01,07,15,14.30
2018,08,01,07,16,14.30
2018,08,01,07,17,14.30
2018,08,01,07,18,14.30
2018,08,01,07,19,14.30
2018,08,01,07,20,14.40
2018,08,01,07,21,14.40
2018,08,01,07,22,14.40
2018,08,01,07,23,14.40
2018,08,01,07,24,14.50
2018,08,01,07,25,14.50
2018,08,01,07,26,14.50
2018,08,01,07,27,14.50
2018,08,01,07,28,14.60
2018,08,01,07,29,14.60
2018,08,01,07,30,14.60
2018,08,01,07,31,14.60
2018,08,01,07,32,14.60
2018,08,01,07,33,14.70
2018,08,01,07,34,14.70
2018,08,01,07,35,14.70
2018,08,01,07,36,14.80
2018,08,01,07,37,14.90
2018,08,01,07,38,14.90
2018,08,01,07,39,15.00
2018,08,01,07,40,15.10
2018,08,01,07,41,15.10
2018,08,01,07,42,15.20
2018,08,01,07,43,15.20
2018,08,01,07,44,15.20
2018,08,01,07,45,15.20
2018,08,01,07,46,15.30
2018,08,01,07,47,15.30
2018,08,01,07,48,15.30
2018,08,01,07,49,15.40
2018,08,01,07,50,15.40
2018,08,01,07,51,15.50
2018,08,01,07,52,15.50
2018,08,01,07,53,15.60
2018,08,01,07,54,15.60
2018,08,01,07,55,15.60
2018,08,01,07,56,15.60
2018,08,01,07,57,15.60
2018,08,01,07,58,15.60
2018,08,01,07,59,15.60
2018,08,01,08,00,15.70
2018,08,01,08,01,15.70
2018,08,01,08,02,15.80
2018,08,01,08,03,15.80
2018,08,01,08,04,15.80
2018,08,01,08,05,15.90
2018,08,01,08,06,15.90
2018,08,01,08,07,15.90
2018,08,01,08,08,15.90
2018,08,01,08,09,15.90
2018,08,01,08,10,15.90
2018,08,01,08,11,15.90
2018,08,01,08,12,15.90
2018,08,01,08,13,15.90
2018,08,01,08,14,15.90
2018,08,01,08,15,15.90
2018,08,01,08,16,15.90
2018,08,01,08,17,15.90
2018,08,01,08,18,15.90
2018,08,01,08,19,15.90
2018,08,01,08,20,16.00
2018,08,01,08,21,15.90
2018,08,01,08,22,15.90
2018,08,01,08,23,15.90
2018,08,01,08,24,15.90
2018,08,01,08,25,15.80
2018,08,01,08,26,15.90
2018,08,01,08,27,15.90
2018,08,01,08,28,16.00
2018,08,01,08,29,16.00
2018,08,01,08,30,16.10
2018,08,01,08,31,16.10
2018,08,01,08,32,16.20
2018,08,01,08,33,16.20
2018,08,01,08,34,16.10
2018,08,01,08,35,16.10
2018,08,01,08,36,16.10
2018,08,01,08,37,16.10
2018,08,01,08,38,16.10
2018,08,01,08,39,16.10
2018,08,01,08,40,16.20
2018,08,01,08,41,16.20
2018,08,01,08,42,16.20
2018,08,01,08,43,16.20
2018,08,01,08,44,16.20
2018,08,01,08,45,16.20
2018,08,01,08,46,16.20
2018,08,01,08,47,16.20
2018,08,01,08,48,16.30
2018,08,01,08,49,16.30
2018,08,01,08,50,16.40
2018,08,01,08,51,16.50
2018,08,01,08,52,16.60
2018,08,01,08,53,16.70
2018,08,01,08,54,16.70
2018,08,01,08,55,16.80
2018,08,01,08,56,16.80
2018,08,01,08,57,16.80
2018,08,01,08,58,16.90
2018,08,01,08,59,16.90
2018,08,01,09,00,16.90
2018,08,01,09,01,16.90
2018,08,01,09,02,16.90
2018,08,01,09,03,16.90
2018,08,01,09,04,16.90
2018,08,01,09,05,16.90
2018,08,01,09,06,16.90
2018,08,01,09,07,16.90
2018,08,01,09,08,17.00
2018,08,01,09,09,16.90
2018,08,01,09,10,16.90
2018,08,01,09,11,16.90
2018,08,01,09,12,16.90
2018,08,01,09,13,17.00
2018,08,01,09,14,17.00
2018,08,01,09,15,17.10
2018,08,01,09,16,17.20
2018,08,01,09,17,17.30
2018,08,01,09,18,17.40
2018,08,01,09,19,17.40
2018,08,01,09,20,17.50
2018,08,01,09,21,17.60
2018,08,01,09,22,17.70
2018,08,01,09,23,17.80
2018,08,01,09,24,17.80
2018,08,01,09,25,17.90
2018,08,01,09,26,17.90
2018,08,01,09,27,17.80
2018,08,01,09,28,17.70
2018,08,01,09,29,17.70
2018,08,01,09,30,17.70
2018,08,01,09,31,17.70
2018,08,01,09,32,17.70
2018,08,01,09,33,17.80
2018,08,01,09,34,17.80
2018,08,01,09,35,17.80
2018,08,01,09,36,17.90
2018,08,01,09,37,18.00
2018,08,01,09,38,18.10
2018,08,01,09,39,18.10
2018,08,01,09,40,18.00
2018,08,01,09,41,17.90
2018,08,01,09,42,17.90
2018,08,01,09,43,17.80
2018,08,01,09,44,17.80
2018,08,01,09,45,17.80
2018,08,01,09,46,17.80
2018,08,01,09,47,17.70
2018,08,01,09,48,17.70
2018,08,01,09,49,17.70
2018,08,01,09,50,17.70
2018,08,01,09,51,17.80
2018,08,01,09,52,17.90
2018,08,01,09,53,18.00
2018,08,01,09,54,18.00
2018,08,01,09,55,18.10
2018,08,01,09,56,18.10
2018,08,01,09,57,18.10
2018,08,01,09,58,18.10
2018,08,01,09,59,18.10
2018,08,01,10,00,18.20
2018,08,01,10,01,18.20
2018,08,01,10,02,18.30
2018,08,01,10,03,18.30
2018,08,01,10,04,18.40
2018,08,01,10,05,18.50
2018,08,01,10,06,18.60
2018,08,01,10,07,18.60
2018,08,01,10,08,18.70
2018,08,01,10,09,18.70
2018,08,01,10,10,18.80
2018,08,01,10,11,18.90
2018,08,01,10,12,19.00
2018,08,01,10,13,19.10
2018,08,01,10,14,19.20
2018,08,01,10,15,19.20
2018,08,01,10,16,18.90
2018,08,01,10,17,18.80
2018,08,01,10,18,18.60
2018,08,01,10,19,18.60
2018,08,01,10,20,18.50
2018,08,01,10,21,18.40
2018,08,01,10,22,18.30
2018,08,01,10,23,18.20
2018,08,01,10,24,18.10
2018,08,01,10,25,17.90
2018,08,01,10,26,17.90
2018,08,01,10,27,18.00
2018,08,01,10,28,18.00
2018,08,01,10,29,18.10
2018,08,01,10,30,18.10
2018,08,01,10,31,18.30
2018,08,01,10,32,18.40
2018,08,01,10,33,18.50
2018,08,01,10,34,18.60
2018,08,01,10,35,18.50
2018,08,01,10,36,18.40
2018,08,01,10,37,18.30
2018,08,01,10,38,18.30
2018,08,01,10,39,18.30
2018,08,01,10,40,18.30
2018,08,01,10,41,18.30
2018,08,01,10,42,18.40
2018,08,01,10,43,18.50
2018,08,01,10,44,18.60
2018,08,01,10,45,18.70
2018,08,01,10,46,18.90
2018,08,01,10,47,19.00
2018,08,01,10,48,19.10
2018,08,01,10,49,19.10
2018,08,01,10,50,19.00
2018,08,01,10,51,19.00
2018,08,01,10,52,19.00
2018,08,01,10,53,19.10
2018,08,01,10,54,19.20
2018,08,01,10,55,19.20
2018,08,01,10,56,19.20
2018,08,01,10,57,19.20
2018,08,01,10,58,19.20
2018,08,01,10,59,19.10
2018,08,01,11,00,19.10
2018,08,01,11,01,19.10
2018,08,01,11,02,19.10
2018,08,01,11,03,19.20
2018,08,01,11,04,19.30
2018,08,01,11,05,19.40
2018,08,01,11,06,19.40
2018,08,01,11,07,19.50
2018,08,01,11,08,19.60
2018,08,01,11,09,19.70
2018,08,01,11,10,19.70
2018,08,01,11,11,19.80
2018,08,01,11,12,19.80
2018,08,01,11,13,19.90
2018,08,01,11,14,20.00
2018,08,01,11,15,20.00
2018,08,01,11,16,20.00
2018,08,01,11,17,19.90
2018,08,01,11,18,19.80
2018,08,01,11,19,19.90
2018,08,01,11,20,19.80
2018,08,01,11,21,19.70
2018,08,01,11,22,19.60
2018,08,01,11,23,19.60
2018,08,01,11,24,19.60
2018,08,01,11,25,19.60
2018,08,01,11,26,19.80
2018,08,01,11,27,19.90
2018,08,01,11,28,19.80
2018,08,01,11,29,19.60
2018,08,01,11,30,19.30
2018,08,01,11,31,19.20
2018,08,01,11,32,19.10
2018,08,01,11,33,19.10
2018,08,01,11,34,19.20
2018,08,01,11,35,19.20
2018,08,01,11,36,19.20
2018,08,01,11,37,19.00
2018,08,01,11,38,18.90
2018,08,01,11,39,18.80
2018,08,01,11,40,18.70
2018,08,01,11,41,18.80
2018,08,01,11,42,18.90
2018,08,01,11,43,19.00
2018,08,01,11,44,19.20
2018,08,01,11,45,19.40
2018,08,01,11,46,19.60
2018,08,01,11,47,19.60
2018,08,01,11,48,19.50
2018,08,01,11,49,19.40
2018,08,01,11,50,19.30
2018,08,01,11,51,19.20
2018,08,01,11,52,19.20
2018,08,01,11,53,19.10
2018,08,01,11,54,19.10
2018,08,01,11,55,19.10
2018,08,01,11,56,19.20
2018,08,01,11,57,19.40
2018,08,01,11,58,19.50
2018,08,01,11,59,19.60
2018,08,01,12,00,19.70
2018,08,01,12,01,19.80
2018,08,01,12,02,19.90
2018,08,01,12,03,20.00
2018,08,01,12,04,20.00
2018,08,01,12,05,20.00
2018,08,01,12,06,20.10
2018,08,01,12,07,20.10
2018,08,01,12,08,20.10
2018,08,01,12,09,20.10
2018,08,01,12,10,20.10
2018,08,01,12,11,20.10
2018,08,01,12,12,20.00
2018,08,01,12,13,20.00
2018,08,01,12,14,20.00
2018,08,01,12,15,20.00
2018,08,01,12,16,19.90
2018,08,01,12,17,19.90
2018,08,01,12,18,20.00
2018,08,01,12,19,20.10
2018,08,01,12,20,20.10
2018,08,01,12,21,20.20
2018,08,01,12,22,20.20
2018,08,01,12,23,20.30
2018,08,01,12,24,20.40
2018,08,01,12,25,20.50
2018,08,01,12,26,20.60
2018,08,01,12,27,20.60
2018,08,01,12,28,20.60
2018,08,01,12,29,20.50
2018,08,01,12,30,20.40
2018,08,01,12,31,20.40
2018,08,01,12,32,20.40
2018,08,01,12,33,20.40
2018,08,01,12,34,20.40
2018,08,01,12,35,20.40
2018,08,01,12,36,20.40
2018,08,01,12,37,20.30
2018,08,01,12,38,20.40
2018,08,01,12,39,20.40
2018,08,01,12,40,20.40
2018,08,01,12,41,20.50
2018,08,01,12,42,20.50
2018,08,01,12,43,20.50
2018,08,01,12,44,20.50
2018,08,01,12,45,20.50
2018,08,01,12,46,20.50
2018,08,01,12,47,20.50
2018,08,01,12,48,20.50
2018,08,01,12,49,20.40
2018,08,01,12,50,20.40
2018,08,01,12,51,20.50
2018,08,01,12,52,20.60
2018,08,01,12,53,20.60
2018,08,01,12,54,20.70
2018,08,01,12,55,20.90
2018,08,01,12,56,20.90
2018,08,01,12,57,20.90
2018,08,01,12,58,20.80
2018,08,01,12,59,20.80
2018,08,01,13,00,20.80
2018,08,01,13,01,20.80
2018,08,01,13,02,20.90
2018,08,01,13,03,21.00
2018,08,01,13,04,21.00
2018,08,01,13,05,21.10
2018,08,01,13,06,21.10
2018,08,01,13,07,21.10
2018,08,01,13,08,21.10
2018,08,01,13,09,21.20
2018,08,01,13,10,21.20
2018,08,01,13,11,21.20
2018,08,01,13,12,21.10
2018,08,01,13,13,21.10
2018,08,01,13,14,21.00
2018,08,01,13,15,20.80
2018,08,01,13,16,20.70
2018,08,01,13,17,20.70
2018,08,01,13,18,20.80
2018,08,01,13,19,20.90
2018,08,01,13,20,21.00
2018,08,01,13,21,21.10
2018,08,01,13,22,21.10
2018,08,01,13,23,21.20
2018,08,01,13,24,21.20
2018,08,01,13,25,21.30
2018,08,01,13,26,21.40
2018,08,01,13,27,21.40
2018,08,01,13,28,21.30
2018,08,01,13,29,21.10
2018,08,01,13,30,21.00
2018,08,01,13,31,20.90
2018,08,01,13,32,21.00
2018,08,01,13,33,21.10
2018,08,01,13,34,21.10
2018,08,01,13,35,21.10
2018,08,01,13,36,21.00
2018,08,01,13,37,21.00
2018,08,01,13,38,21.00
2018,08,01,13,39,21.00
2018,08,01,13,40,21.10
2018,08,01,13,41,21.10
2018,08,01,13,42,21.20
2018,08,01,13,43,21.00
2018,08,01,13,44,20.90
2018,08,01,13,45,20.80
2018,08,01,13,46,20.80
2018,08,01,13,47,20.80
2018,08,01,13,48,20.90
2018,08,01,13,49,20.80
2018,08,01,13,50,20.70
2018,08,01,13,51,20.70
2018,08,01,13,52,20.60
2018,08,01,13,53,20.60
2018,08,01,13,54,20.60
2018,08,01,13,55,20.70
2018,08,01,13,56,20.70
2018,08,01,13,57,20.80
2018,08,01,13,58,20.90
2018,08,01,13,59,21.10
2018,08,01,14,00,21.30
2018,08,01,14,01,21.40
2018,08,01,14,02,21.50
2018,08,01,14,03,21.50
2018,08,01,14,04,21.30
2018,08,01,14,05,21.10
2018,08,01,14,06,21.00
2018,08,01,14,07,21.00
2018,08,01,14,08,20.90
2018,08,01,14,09,21.00
2018,08,01,14,10,21.10
2018,08,01,14,11,21.00
2018,08,01,14,12,20.90
2018,08,01,14,13,20.80
2018,08,01,14,14,20.80
2018,08,01,14,15,20.70
2018,08,01,14,16,20.70
2018,08,01,14,17,20.70
2018,08,01,14,18,20.70
2018,08,01,14,19,20.70
2018,08,01,14,20,20.80
2018,08,01,14,21,21.00
2018,08,01,14,22,21.00
2018,08,01,14,23,21.00
2018,08,01,14,24,21.00
2018,08,01,14,25,21.00
2018,08,01,14,26,21.00
2018,08,01,14,27,21.10
2018,08,01,14,28,21.20
2018,08,01,14,29,21.20
2018,08,01,14,30,21.20
2018,08,01,14,31,21.20
2018,08,01,14,32,21.10
2018,08,01,14,33,21.10
2018,08,01,14,34,21.00
2018,08,01,14,35,21.00
2018,08,01,14,36,21.10
2018,08,01,14,37,21.20
2018,08,01,14,38,21.30
2018,08,01,14,39,21.30
2018,08,01,14,40,21.30
2018,08,01,14,41,21.40
2018,08,01,14,42,21.20
2018,08,01,14,43,21.00
2018,08,01,14,44,20.80
2018,08,01,14,45,20.60
2018,08,01,14,46,20.40
2018,08,01,14,47,20.40
2018,08,01,14,48,20.50
2018,08,01,14,49,20.40
2018,08,01,14,50,20.40
2018,08,01,14,51,20.40
2018,08,01,14,52,20.50
2018,08,01,14,53,20.60
2018,08,01,14,54,20.60
2018,08,01,14,55,20.70
2018,08,01,14,56,20.70
2018,08,01,14,57,20.70
2018,08,01,14,58,20.60
2018,08,01,14,59,20.50
2018,08,01,15,00,20.50
2018,08,01,15,01,20.60
2018,08,01,15,02,20.60
2018,08,01,15,03,20.70
2018,08,01,15,04,20.60
2018,08,01,15,05,20.70
2018,08,01,15,06,20.80
2018,08,01,15,07,20.80
2018,08,01,15,08,20.70
2018,08,01,15,09,20.70
2018,08,01,15,10,20.50
2018,08,01,15,11,20.40
2018,08,01,15,12,20.50
2018,08,01,15,13,20.60
2018,08,01,15,14,20.60
2018,08,01,15,15,20.60
2018,08,01,15,16,20.60
2018,08,01,15,17,20.70
2018,08,01,15,18,20.70
2018,08,01,15,19,20.80
2018,08,01,15,20,20.80
2018,08,01,15,21,20.80
2018,08,01,15,22,20.90
2018,08,01,15,23,21.00
2018,08,01,15,24,21.30
2018,08,01,15,25,21.30
2018,08,01,15,26,21.20
2018,08,01,15,27,20.90
2018,08,01,15,28,20.80
2018,08,01,15,29,20.80
2018,08,01,15,30,21.00
2018,08,01,15,31,21.20
2018,08,01,15,32,21.40
2018,08,01,15,33,21.60
2018,08,01,15,34,21.70
2018,08,01,15,35,21.90
2018,08,01,15,36,22.00
2018,08,01,15,37,22.00
2018,08,01,15,38,21.90
2018,08,01,15,39,21.60
2018,08,01,15,40,21.40
2018,08,01,15,41,21.30
2018,08,01,15,42,21.20
2018,08,01,15,43,21.10
2018,08,01,15,44,21.00
2018,08,01,15,45,21.00
2018,08,01,15,46,20.90
2018,08,01,15,47,20.90
2018,08,01,15,48,20.80
2018,08,01,15,49,20.70
2018,08,01,15,50,20.70
2018,08,01,15,51,20.70
2018,08,01,15,52,20.70
2018,08,01,15,53,20.70
2018,08,01,15,54,20.60
2018,08,01,15,55,20.60
2018,08,01,15,56,20.60
2018,08,01,15,57,20.60
2018,08,01,15,58,20.50
2018,08,01,15,59,20.50
2018,08,01,16,00,20.40
2018,08,01,16,01,20.40
2018,08,01,16,02,20.40
2018,08,01,16,03,20.40
2018,08,01,16,04,20.40
2018,08,01,16,05,20.40
2018,08,01,16,06,20.40
2018,08,01,16,07,20.40
2018,08,01,16,08,20.30
2018,08,01,16,09,20.40
2018,08,01,16,10,20.50
2018,08,01,16,11,20.60
2018,08,01,16,12,20.80
2018,08,01,16,13,20.90
2018,08,01,16,14,20.80
2018,08,01,16,15,20.80
2018,08,01,16,16,20.80
2018,08,01,16,17,20.70
2018,08,01,16,18,20.80
2018,08,01,16,19,20.80
2018,08,01,16,20,20.80
2018,08,01,16,21,20.70
2018,08,01,16,22,20.70
2018,08,01,16,23,20.70
2018,08,01,16,24,20.70
2018,08,01,16,25,20.70
2018,08,01,16,26,20.80
2018,08,01,16,27,20.70
2018,08,01,16,28,20.70
2018,08,01,16,29,20.60
2018,08,01,16,30,20.60
2018,08,01,16,31,20.60
2018,08,01,16,32,20.60
2018,08,01,16,33,20.70
2018,08,01,16,34,20.70
2018,08,01,16,35,20.80
2018,08,01,16,36,20.80
2018,08,01,16,37,20.80
2018,08,01,16,38,20.80
2018,08,01,16,39,20.90
2018,08,01,16,40,20.90
2018,08,01,16,41,20.90
2018,08,01,16,42,21.00
2018,08,01,16,43,21.20
2018,08,01,16,44,21.30
2018,08,01,16,45,21.30
2018,08,01,16,46,21.30
2018,08,01,16,47,21.30
2018,08,01,16,48,21.30
2018,08,01,16,49,21.30
2018,08,01,16,50,21.30
2018,08,01,16,51,21.30
2018,08,01,16,52,21.30
2018,08,01,16,53,21.30
2018,08,01,16,54,21.20
2018,08,01,16,55,21.20
2018,08,01,16,56,21.20
2018,08,01,16,57,21.20
2018,08,01,16,58,21.20
2018,08,01,16,59,21.10
2018,08,01,17,00,21.00
2018,08,01,17,01,21.00
2018,08,01,17,02,21.00
2018,08,01,17,03,21.00
2018,08,01,17,04,21.00
2018,08,01,17,05,21.00
2018,08,01,17,06,21.00
2018,08,01,17,07,21.10
2018,08,01,17,08,21.20
2018,08,01,17,09,21.30
2018,08,01,17,10,21.30
2018,08,01,17,11,21.30
2018,08,01,17,12,21.30
2018,08,01,17,13,21.30
2018,08,01,17,14,21.40
2018,08,01,17,15,21.40
2018,08,01,17,16,21.30
2018,08,01,17,17,21.20
2018,08,01,17,18,21.10
2018,08,01,17,19,21.10